When you browse on this site, cookies collect data to enhance your experience and personalize the content and advertising you see.
Visit our Privacy Policy to learn more. By continuing to use the site, you agree to this use of cookies and data.
  • In Portugal
  • List of Countries
  • For 7 days
  • Water Temperature
  • Weather Map
  • Weather Widgets
  • user-avatar
    Login

    Hourly Weather Porabka

    Today, 28 January, Tuesday

    Time Temperature Precipitation Wind Pressure Humidity
    00:00 0°C° 0 mm 1 mps 708 mmHg 81%
    01:00 0°C° 0 mm 1 mps 708 mmHg 81%
    02:00 -2°C° 0 mm 2 mps 707 mmHg 80%
    03:00 -2°C° 0 mm 2 mps 707 mmHg 80%
    04:00 -2°C° 0 mm 2 mps 706 mmHg 79%
    05:00 -2°C° 0 mm 2 mps 706 mmHg 79%
    06:00 -2°C° 0 mm 2 mps 705 mmHg 80%
    07:00 -2°C° 0 mm 2 mps 705 mmHg 80%
    08:00 -1°C° 0 mm 2 mps 705 mmHg 78%
    09:00 +1°C° 0 mm 2 mps 704 mmHg 75%
    10:00 +2°C° 0 mm 2 mps 704 mmHg 73%
    11:00 +2°C° 0 mm 2 mps 703 mmHg 73%
    12:00 +3°C° 0 mm 2 mps 703 mmHg 74%
    13:00 +3°C° 0 mm 2 mps 703 mmHg 75%
    14:00 +2°C° 0 mm 2 mps 702 mmHg 78%
    15:00 +2°C° 0 mm 2 mps 701 mmHg 81%
    16:00 +1°C° 0 mm 2 mps 700 mmHg 85%
    17:00 -1°C° 0 mm 2 mps 700 mmHg 85%
    18:00 -1°C° 0 mm 2 mps 700 mmHg 86%
    19:00 -1°C° 0 mm 2 mps 700 mmHg 87%
    20:00 -1°C° 0.5 mm 2 mps 700 mmHg 90%
    21:00 -1°C° 0.5 mm 2 mps 699 mmHg 92%
    22:00 -1°C° 0.5 mm 2 mps 699 mmHg 95%
    23:00 -1°C° 0 mm 2 mps 699 mmHg 93%

    Tomorrow, 29 January, Wednesday

    Time Temperature Precipitation Wind Pressure Humidity
    00:00 -1°C° 0 mm 3 mps 699 mmHg 91%
    01:00 -1°C° 0 mm 3 mps 699 mmHg 89%
    02:00 -2°C° 0.1 mm 4 mps 699 mmHg 87%
    03:00 -2°C° 0.1 mm 4 mps 699 mmHg 85%
    04:00 -2°C° 0.1 mm 4 mps 699 mmHg 82%
    05:00 -3°C° 0 mm 4 mps 700 mmHg 82%
    06:00 -3°C° 0 mm 4 mps 700 mmHg 81%
    07:00 -4°C° 0 mm 4 mps 701 mmHg 80%
    08:00 -4°C° 0 mm 5 mps 701 mmHg 78%
    09:00 -4°C° 0 mm 5 mps 701 mmHg 77%
    10:00 -3°C° 0 mm 6 mps 701 mmHg 75%
    11:00 -3°C° 0.2 mm 6 mps 701 mmHg 79%
    12:00 -3°C° 0.2 mm 7 mps 701 mmHg 82%
    13:00 -3°C° 0.2 mm 7 mps 701 mmHg 86%
    14:00 -3°C° 0.7 mm 7 mps 701 mmHg 88%
    15:00 -5°C° 0.7 mm 8 mps 701 mmHg 89%
    16:00 -5°C° 0.7 mm 8 mps 702 mmHg 91%
    17:00 -4°C° 0.5 mm 7 mps 702 mmHg 92%
    18:00 -4°C° 0.5 mm 7 mps 703 mmHg 93%
    19:00 -4°C° 0.5 mm 6 mps 703 mmHg 95%
    20:00 -4°C° 0.2 mm 6 mps 704 mmHg 94%
    21:00 -4°C° 0.2 mm 5 mps 704 mmHg 93%
    22:00 -4°C° 0.2 mm 5 mps 705 mmHg 92%
    23:00 -4°C° 0.2 mm 5 mps 705 mmHg 93%

    Day after tomorrow, 30 January, Thursday

    Time Temperature Precipitation Wind Pressure Humidity
    00:00 -4°C° 0.2 mm 5 mps 705 mmHg 94%
    01:00 -5°C° 0.2 mm 5 mps 706 mmHg 94%
    02:00 -4°C° 0.3 mm 5 mps 706 mmHg 95%
    03:00 -4°C° 0.3 mm 6 mps 707 mmHg 95%
    04:00 -4°C° 0.3 mm 6 mps 707 mmHg 96%
    05:00 -4°C° 0.2 mm 6 mps 708 mmHg 95%
    06:00 -4°C° 0.2 mm 6 mps 708 mmHg 94%
    07:00 -4°C° 0.2 mm 6 mps 709 mmHg 93%
    08:00 -4°C° 0 mm 6 mps 709 mmHg 90%
    09:00 -4°C° 0 mm 6 mps 709 mmHg 88%
    10:00 -4°C° 0 mm 6 mps 710 mmHg 86%
    11:00 -2°C° 0 mm 5 mps 710 mmHg 82%
    12:00 -2°C° 0 mm 5 mps 710 mmHg 79%
    13:00 -1°C° 0 mm 5 mps 710 mmHg 76%
    14:00 -2°C° 0 mm 4 mps 710 mmHg 78%
    15:00 -1°C° 0 mm 3 mps 710 mmHg 80%
    16:00 -2°C° 0 mm 2 mps 709 mmHg 83%
    17:00 -3°C° 0 mm 2 mps 709 mmHg 83%
    18:00 -4°C° 0 mm 2 mps 710 mmHg 84%
    19:00 -4°C° 0 mm 2 mps 710 mmHg 85%
    20:00 -4°C° 0 mm 2 mps 709 mmHg 83%
    21:00 -3°C° 0 mm 2 mps 709 mmHg 81%
    22:00 -3°C° 0 mm 2 mps 709 mmHg 79%
    23:00 -3°C° 0 mm 2 mps 709 mmHg 79%

    31 January, Friday

    Time Temperature Precipitation Wind Pressure Humidity
    00:00 -3°C° 0 mm 2 mps 708 mmHg 79%
    01:00 -3°C° 0 mm 2 mps 708 mmHg 79%
    02:00 -2°C° 0 mm 2 mps 708 mmHg 78%
    03:00 -2°C° 0 mm 2 mps 707 mmHg 77%
    04:00 -2°C° 0 mm 2 mps 707 mmHg 76%
    05:00 -2°C° 0 mm 2 mps 706 mmHg 75%
    06:00 -1°C° 0 mm 2 mps 706 mmHg 74%
    07:00 -1°C° 0 mm 3 mps 705 mmHg 73%
    08:00 -1°C° 0.3 mm 3 mps 705 mmHg 78%
    09:00 0°C° 0.3 mm 3 mps 705 mmHg 82%
    10:00 0°C° 0.3 mm 4 mps 705 mmHg 86%
    11:00 0°C° 0.3 mm 4 mps 705 mmHg 88%
    12:00 +1°C° 0.3 mm 4 mps 705 mmHg 90%
    13:00 +3°C° 0.3 mm 4 mps 705 mmHg 92%
    14:00 +3°C° 0.1 mm 4 mps 705 mmHg 92%
    15:00 +3°C° 0.1 mm 4 mps 705 mmHg 92%
    16:00 +3°C° 0.1 mm 4 mps 705 mmHg 92%
    17:00 +4°C° 0.1 mm 4 mps 705 mmHg 91%
    18:00 +4°C° 0.1 mm 4 mps 706 mmHg 91%
    19:00 +3°C° 0.1 mm 5 mps 706 mmHg 91%
    20:00 +3°C° 0 mm 5 mps 706 mmHg 91%
    21:00 +4°C° 0 mm 4 mps 706 mmHg 91%
    22:00 +4°C° 0 mm 4 mps 707 mmHg 91%
    23:00 +3°C° 0 mm 4 mps 707 mmHg 91%

    1 February, Saturday

    Time Temperature Precipitation Wind Pressure Humidity
    00:00 +3°C° 0 mm 3 mps 707 mmHg 90%
    01:00 +3°C° 0 mm 3 mps 707 mmHg 90%
    02:00 +3°C° 0 mm 3 mps 707 mmHg 90%
    03:00 +3°C° 0 mm 3 mps 707 mmHg 91%
    04:00 +4°C° 0 mm 2 mps 707 mmHg 91%
    05:00 +4°C° 0 mm 2 mps 707 mmHg 90%
    06:00 +4°C° 0 mm 2 mps 707 mmHg 90%
    07:00 +4°C° 0 mm 2 mps 707 mmHg 90%
    08:00 +3°C° 0 mm 3 mps 707 mmHg 89%
    09:00 +4°C° 0 mm 3 mps 707 mmHg 87%
    10:00 +5°C° 0 mm 3 mps 707 mmHg 85%
    11:00 +5°C° 0 mm 3 mps 707 mmHg 86%
    12:00 +5°C° 0 mm 3 mps 707 mmHg 87%
    13:00 +5°C° 0 mm 3 mps 706 mmHg 88%
    14:00 +5°C° 0.2 mm 3 mps 706 mmHg 89%
    15:00 +4°C° 0.2 mm 3 mps 706 mmHg 91%
    16:00 +4°C° 0.2 mm 3 mps 706 mmHg 92%
    17:00 +4°C° 0.2 mm 3 mps 706 mmHg 92%
    18:00 +4°C° 0.2 mm 3 mps 707 mmHg 93%
    19:00 +5°C° 0.2 mm 2 mps 707 mmHg 93%
    20:00 +4°C° 0 mm 3 mps 707 mmHg 92%
    21:00 +4°C° 0 mm 3 mps 707 mmHg 91%
    22:00 +4°C° 0 mm 3 mps 707 mmHg 91%
    23:00 +4°C° 0.2 mm 4 mps 707 mmHg 88%

    2 February, Sunday

    Time Temperature Precipitation Wind Pressure Humidity
    00:00 +3°C° 0.2 mm 5 mps 708 mmHg 86%
    01:00 +3°C° 0.2 mm 6 mps 708 mmHg 84%
    02:00 +2°C° 0 mm 5 mps 708 mmHg 83%
    03:00 +1°C° 0 mm 4 mps 709 mmHg 82%
    04:00 0°C° 0 mm 4 mps 709 mmHg 82%
    05:00 0°C° 0 mm 4 mps 709 mmHg 82%
    06:00 0°C° 0 mm 3 mps 709 mmHg 83%
    07:00 0°C° 0 mm 3 mps 709 mmHg 84%
    08:00 +2°C° 0 mm 3 mps 709 mmHg 82%
    09:00 +3°C° 0 mm 4 mps 710 mmHg 80%
    10:00 +4°C° 0 mm 4 mps 710 mmHg 78%
    11:00 +5°C° 0 mm 4 mps 709 mmHg 78%
    12:00 +5°C° 0 mm 4 mps 708 mmHg 79%
    13:00 +6°C° 0 mm 5 mps 708 mmHg 80%
    14:00 +6°C° 0.3 mm 5 mps 707 mmHg 80%
    15:00 +6°C° 0.3 mm 5 mps 706 mmHg 81%
    16:00 +6°C° 0.3 mm 5 mps 706 mmHg 82%
    17:00 +5°C° 0.3 mm 6 mps 705 mmHg 83%
    18:00 +5°C° 0.3 mm 6 mps 705 mmHg 83%
    19:00 +5°C° 0.3 mm 6 mps 704 mmHg 83%
    20:00 +5°C° 0.2 mm 6 mps 704 mmHg 82%
    21:00 +6°C° 0.2 mm 7 mps 704 mmHg 81%
    22:00 +6°C° 0.2 mm 8 mps 704 mmHg 79%
    23:00 +6°C° 0.8 mm 7 mps 704 mmHg 81%
    Show more